owner,sensor,date,latitude,longitude,vertical_datum,wind_speed,wind_to_direction,wind_speed_of_gust,qcFlag 
TABS,ioos:station:wmo:42047:1,2004-08-19T15:39:00Z,27.8966,-93.5973,4.0,4.23001182,136.5329439,6.97,'11111222,11111222,11111222' 
TABS,ioos:station:wmo:42047:1,2004-08-19T16:09:00Z,27.8966,-93.5973,4.0,5.397082545,148.8726689,7.66,'11111222,11111222,11111222' 
TABS,ioos:station:wmo:42047:1,2004-08-19T16:39:00Z,27.8966,-93.5973,4.0,5.269354799,128.9148599,7.31,'11111222,11111222,11111222' 
TABS,ioos:station:wmo:42047:1,2004-08-19T17:09:00Z,27.8966,-93.5973,4.0,4.706442393,138.9632606,7.53,'11111222,11111222,11111222' 
TABS,ioos:station:wmo:42047:1,2004-08-19T17:39:00Z,27.8966,-93.5973,4.0,6.07704698,146.8855124,8.5,'11111222,11111222,11111222' 
TABS,ioos:station:wmo:42047:1,2004-08-19T18:09:00Z,27.8966,-93.5973,4.0,5.743587729,152.1859816,8.14,'11111222,11111222,11111222' 
TABS,ioos:station:wmo:42047:1,2004-08-19T18:39:00Z,27.8966,-93.5973,4.0,5.376262642,155.9620326,7.52,'11111222,11111222,11111222' 
TABS,ioos:station:wmo:42047:1,2004-08-19T19:09:00Z,27.8966,-93.5973,4.0,5.319295066,157.0986867,7.24,'11111222,11111222,11111222' 
TABS,ioos:station:wmo:42047:1,2004-08-19T19:39:00Z,27.8966,-93.5973,4.0,5.235360542,159.0727511,6.92,'11111222,11111222,11111222' 
TABS,ioos:station:wmo:42047:1,2004-08-19T20:09:00Z,27.8966,-93.5973,4.0,5.510943658,175.0034615,7.79,'11111222,11111222,11111222' 
TABS,ioos:station:wmo:42047:1,2004-08-19T20:39:00Z,27.8966,-93.5973,4.0,5.32455632,168.6269944,7.34,'11111222,11111222,11111222' 
TABS,ioos:station:wmo:42047:1,2004-08-19T21:09:00Z,27.8966,-93.5973,4.0,5.539458457,173.157453,8.2,'11111222,11111222,11111222' 
TABS,ioos:station:wmo:42047:1,2004-08-19T21:39:00Z,27.8966,-93.5973,4.0,5.075756101,172.3011534,6.78,'11111222,11111222,11111222' 
TABS,ioos:station:wmo:42047:1,2004-08-19T22:09:00Z,27.8966,-93.5973,4.0,5.311544032,176.2220216,7.19,'11111222,11111222,11111222' 
TABS,ioos:station:wmo:42047:1,2004-08-19T22:39:00Z,27.8966,-93.5973,4.0,4.140978145,178.7548491,5.88,'11111222,11111222,11111222' 
TABS,ioos:station:wmo:42047:1,2004-08-19T23:09:00Z,27.8966,-93.5973,4.0,4.122729678,177.9151249,6.14,'11111222,11111222,11111222' 
TABS,ioos:station:wmo:42047:1,2004-08-19T23:39:00Z,27.8966,-93.5973,4.0,4.36716155,176.7185031,6.43,'11111222,11111222,11111222' 
TABS,ioos:station:wmo:42047:1,2004-08-20T00:09:00Z,27.8966,-93.5973,4.0,4.834563062,182.4897576,6.82,'11111222,11111222,11111222' 
TABS,ioos:station:wmo:42047:1,2004-08-20T00:39:00Z,27.8966,-93.5973,4.0,4.623505164,177.7690411,6.13,'11111222,11111222,11111222' 
TABS,ioos:station:wmo:42047:1,2004-08-20T01:09:00Z,27.8966,-93.5973,4.0,5.200086538,179.6696623,7.54,'11111222,11111222,11111222' 
TABS,ioos:station:wmo:42047:1,2004-08-20T01:39:00Z,27.8966,-93.5973,4.0,5.492476673,176.1375713,7.45,'11111222,11111222,11111222' 
TABS,ioos:station:wmo:42047:1,2004-08-20T02:09:00Z,27.8966,-93.5973,4.0,5.517182252,172.5016608,7.59,'11111222,11111222,11111222' 
TABS,ioos:station:wmo:42047:1,2004-08-20T02:39:00Z,27.8966,-93.5973,4.0,5.197095343,174.1470226,6.84,'11111222,11111222,11111222' 
TABS,ioos:station:wmo:42047:1,2004-08-20T03:09:00Z,27.8966,-93.5973,4.0,5.416456406,171.7205305,7.45,'11111222,11111222,11111222' 
TABS,ioos:station:wmo:42047:1,2004-08-20T03:39:00Z,27.8966,-93.5973,4.0,5.970142377,175.2923692,7.92,'11111222,11111222,11111222' 
TABS,ioos:station:wmo:42047:1,2004-08-20T04:09:00Z,27.8966,-93.5973,4.0,6.099458992,168.1744733,8.38,'11111222,11111222,11111222' 
TABS,ioos:station:wmo:42047:1,2004-08-20T04:39:00Z,27.8966,-93.5973,4.0,6.296316383,165.6550124,8.47,'11111222,11111222,11111222' 
TABS,ioos:station:wmo:42047:1,2004-08-20T05:09:00Z,27.8966,-93.5973,4.0,5.919062426,167.1144545,8.06,'11111222,11111222,11111222' 
TABS,ioos:station:wmo:42047:1,2004-08-20T05:39:00Z,27.8966,-93.5973,4.0,6.377342707,169.9766407,9.22,'11111222,11111222,11111222' 
TABS,ioos:station:wmo:42047:1,2004-08-20T06:09:00Z,27.8966,-93.5973,4.0,6.093143688,183.7642365,8.89,'11111222,11111222,11111222' 
TABS,ioos:station:wmo:42047:1,2004-08-20T06:39:00Z,27.8966,-93.5973,4.0,5.726718083,187.3237648,8.07,'11111222,11111222,11111222' 
TABS,ioos:station:wmo:42047:1,2004-08-20T07:09:00Z,27.8966,-93.5973,4.0,4.901632381,198.8047604,7.61,'11111222,11111222,11111222' 
TABS,ioos:station:wmo:42047:1,2004-08-20T07:39:00Z,27.8966,-93.5973,4.0,5.009051806,198.5074591,7.51,'11111222,11111222,11111222' 
TABS,ioos:station:wmo:42047:1,2004-08-20T08:09:00Z,27.8966,-93.5973,4.0,5.770658541,193.12131,8.26,'11111222,11111222,11111222' 
TABS,ioos:station:wmo:42047:1,2004-08-20T08:39:00Z,27.8966,-93.5973,4.0,5.736898117,175.6015154,7.84,'11111222,11111222,11111222' 
TABS,ioos:station:wmo:42047:1,2004-08-20T09:09:00Z,27.8966,-93.5973,4.0,6.58380589,187.3302992,9.49,'11111222,11111222,11111222' 
TABS,ioos:station:wmo:42047:1,2004-08-20T09:39:00Z,27.8966,-93.5973,4.0,4.557389604,193.5790414,7.16,'11111222,11111222,11111222' 
TABS,ioos:station:wmo:42047:1,2004-08-20T10:09:00Z,27.8966,-93.5973,4.0,6.46421689,200.3694761,9.11,'11111222,11111222,11111222' 
TABS,ioos:station:wmo:42047:1,2004-08-20T10:39:00Z,27.8966,-93.5973,4.0,5.554862735,195.9880733,8.06,'11111222,11111222,11111222' 
TABS,ioos:station:wmo:42047:1,2004-08-20T11:09:00Z,27.8966,-93.5973,4.0,5.724071977,197.8020409,8.43,'11111222,11111222,11111222' 
TABS,ioos:station:wmo:42047:1,2004-08-20T11:39:00Z,27.8966,-93.5973,4.0,5.550099098,200.459547,7.65,'11111222,11111222,11111222' 
TABS,ioos:station:wmo:42047:1,2004-08-20T12:09:00Z,27.8966,-93.5973,4.0,5.755432217,193.77083,8.33,'11111222,11111222,11111222' 
TABS,ioos:station:wmo:42047:1,2004-08-20T12:39:00Z,27.8966,-93.5973,4.0,5.778935888,199.7206812,7.79,'11111222,11111222,11111222' 
TABS,ioos:station:wmo:42047:1,2004-08-20T13:09:00Z,27.8966,-93.5973,4.0,5.995039616,196.7726486,8.15,'11111222,11111222,11111222' 
TABS,ioos:station:wmo:42047:1,2004-08-20T13:39:00Z,27.8966,-93.5973,4.0,5.959211357,193.6866352,8.8,'11111222,11111222,11111222' 
TABS,ioos:station:wmo:42047:1,2004-08-20T14:09:00Z,27.8966,-93.5973,4.0,6.234821569,200.7605652,9.38,'11111222,11111222,11111222' 
TABS,ioos:station:wmo:42047:1,2004-08-20T14:39:00Z,27.8966,-93.5973,4.0,5.405922678,204.4791942,7.54,'11111222,11111222,11111222' 
TABS,ioos:station:wmo:42047:1,2004-08-20T15:09:00Z,27.8966,-93.5973,4.0,5.077450147,200.0411154,6.98,'11111222,11111222,11111222' 
TABS,ioos:station:wmo:42047:1,2004-08-20T15:39:00Z,27.8966,-93.5973,4.0,5.412023651,196.0909892,7.49,'11111222,11111222,11111222' 
TABS,ioos:station:wmo:42047:1,2004-08-20T16:09:00Z,27.8966,-93.5973,4.0,5.862507996,194.723841,7.81,'11111222,11111222,11111222' 
TABS,ioos:station:wmo:42047:1,2004-08-20T16:39:00Z,27.8966,-93.5973,4.0,5.921900033,188.9376068,8.27,'11111222,11111222,11111222' 
TABS,ioos:station:wmo:42047:1,2004-08-20T17:09:00Z,27.8966,-93.5973,4.0,5.636532622,193.9624595,7.98,'11111222,11111222,11111222' 
TABS,ioos:station:wmo:42047:1,2004-08-20T17:39:00Z,27.8966,-93.5973,4.0,5.852401217,190.7341073,8.26,'11111222,11111222,11111222' 
TABS,ioos:station:wmo:42047:1,2004-08-20T18:09:00Z,27.8966,-93.5973,4.0,5.279024531,195.379042,7.15,'11111222,11111222,11111222' 
TABS,ioos:station:wmo:42047:1,2004-08-20T18:39:00Z,27.8966,-93.5973,4.0,4.647235738,193.4383672,7.17,'11111222,11111222,11111222' 
TABS,ioos:station:wmo:42047:1,2004-08-20T19:09:00Z,27.8966,-93.5973,4.0,4.369038796,192.8276973,6.77,'11111222,11111222,11111222' 
TABS,ioos:station:wmo:42047:1,2004-08-20T19:39:00Z,27.8966,-93.5973,4.0,4.233308399,187.19236,6.23,'11111222,11111222,11111222' 
TABS,ioos:station:wmo:42047:1,2004-08-20T20:09:00Z,27.8966,-93.5973,4.0,3.689891597,184.1964483,5.99,'11111222,11111222,11111222' 
TABS,ioos:station:wmo:42047:1,2004-08-20T20:39:00Z,27.8966,-93.5973,4.0,3.732251331,188.6296369,5.83,'11111222,11111222,11111222' 
TABS,ioos:station:wmo:42047:1,2004-08-20T21:09:00Z,27.8966,-93.5973,4.0,3.991102605,190.8314908,6.26,'11111222,11111222,11111222' 
TABS,ioos:station:wmo:42047:1,2004-08-20T21:39:00Z,27.8966,-93.5973,4.0,4.439684673,195.413756,6.58,'11111222,11111222,11111222' 
TABS,ioos:station:wmo:42047:1,2004-08-20T22:09:00Z,27.8966,-93.5973,4.0,3.599402728,184.1425236,5.36,'11111222,11111222,11111222' 
TABS,ioos:station:wmo:42047:1,2004-08-20T22:39:00Z,27.8966,-93.5973,4.0,3.653286192,197.1951443,5.42,'11111222,11111222,11111222' 
TABS,ioos:station:wmo:42047:1,2004-08-20T23:09:00Z,27.8966,-93.5973,4.0,3.432462673,182.1707266,6.1,'11111222,11111222,11111222' 
TABS,ioos:station:wmo:42047:1,2004-08-20T23:39:00Z,27.8966,-93.5973,4.0,3.870142116,184.1491045,5.98,'11111222,11111222,11111222' 
TABS,ioos:station:wmo:42047:1,2004-08-21T00:09:00Z,27.8966,-93.5973,4.0,3.171009303,178.5545704,5.68,'11111222,11111222,11111222' 
TABS,ioos:station:wmo:42047:1,2004-08-21T00:39:00Z,27.8966,-93.5973,4.0,3.291838392,178.0852639,5.3,'11111222,11111222,11111222' 
TABS,ioos:station:wmo:42047:1,2004-08-21T01:09:00Z,27.8966,-93.5973,4.0,3.873241536,170.4892723,6.04,'11111222,11111222,11111222' 
TABS,ioos:station:wmo:42047:1,2004-08-21T01:39:00Z,27.8966,-93.5973,4.0,3.304617981,161.8394445,4.94,'11111222,11111222,11111222' 
TABS,ioos:station:wmo:42047:1,2004-08-21T02:09:00Z,27.8966,-93.5973,4.0,3.722002149,161.5166254,5.82,'11111222,11111222,11111222' 
TABS,ioos:station:wmo:42047:1,2004-08-21T02:39:00Z,27.8966,-93.5973,4.0,4.452796874,174.2000063,6.42,'11111222,11111222,11111222' 
TABS,ioos:station:wmo:42047:1,2004-08-21T03:09:00Z,27.8966,-93.5973,4.0,4.430857705,175.9883072,6.59,'11111222,11111222,11111222' 
TABS,ioos:station:wmo:42047:1,2004-08-21T03:39:00Z,27.8966,-93.5973,4.0,4.538039224,176.5892735,6.34,'11111222,11111222,11111222' 
TABS,ioos:station:wmo:42047:1,2004-08-21T04:09:00Z,27.8966,-93.5973,4.0,4.962509446,171.6578615,6.84,'11111222,11111222,11111222' 
TABS,ioos:station:wmo:42047:1,2004-08-21T04:39:00Z,27.8966,-93.5973,4.0,4.759884452,168.2417692,7.05,'11111222,11111222,11111222' 
TABS,ioos:station:wmo:42047:1,2004-08-21T05:09:00Z,27.8966,-93.5973,4.0,4.750852555,181.0856823,7.32,'11111222,11111222,11111222' 
TABS,ioos:station:wmo:42047:1,2004-08-21T05:39:00Z,27.8966,-93.5973,4.0,4.916360442,177.085434,7.04,'11111222,11111222,11111222' 
TABS,ioos:station:wmo:42047:1,2004-08-21T06:09:00Z,27.8966,-93.5973,4.0,5.058942577,171.2454579,7.17,'11111222,11111222,11111222' 
TABS,ioos:station:wmo:42047:1,2004-08-21T06:39:00Z,27.8966,-93.5973,4.0,4.743374326,172.2459429,7.57,'11111222,11111222,11111222' 
TABS,ioos:station:wmo:42047:1,2004-08-21T07:09:00Z,27.8966,-93.5973,4.0,4.958245657,172.0008642,7.27,'11111222,11111222,11111222' 
TABS,ioos:station:wmo:42047:1,2004-08-21T07:39:00Z,27.8966,-93.5973,4.0,4.733244131,173.2055279,6.88,'11111222,11111222,11111222' 
TABS,ioos:station:wmo:42047:1,2004-08-21T08:09:00Z,27.8966,-93.5973,4.0,5.168994099,172.1052652,7.37,'11111222,11111222,11111222' 
TABS,ioos:station:wmo:42047:1,2004-08-21T08:39:00Z,27.8966,-93.5973,4.0,4.64556778,175.3082762,6.83,'11111222,11111222,11111222' 
TABS,ioos:station:wmo:42047:1,2004-08-21T09:09:00Z,27.8966,-93.5973,4.0,4.730095136,179.636818,6.99,'11111222,11111222,11111222' 
TABS,ioos:station:wmo:42047:1,2004-08-21T09:39:00Z,27.8966,-93.5973,4.0,4.857828733,191.5182951,6.71,'11111222,11111222,11111222' 
TABS,ioos:station:wmo:42047:1,2004-08-21T10:09:00Z,27.8966,-93.5973,4.0,4.668040274,190.4916629,6.44,'11111222,11111222,11111222' 
TABS,ioos:station:wmo:42047:1,2004-08-21T10:39:00Z,27.8966,-93.5973,4.0,4.503176657,188.8140662,6.9,'11111222,11111222,11111222' 
TABS,ioos:station:wmo:42047:1,2004-08-21T11:09:00Z,27.8966,-93.5973,4.0,4.960040322,180.23124,6.8,'11111222,11111222,11111222' 
TABS,ioos:station:wmo:42047:1,2004-08-21T11:39:00Z,27.8966,-93.5973,4.0,4.455928635,173.8162295,6.55,'11111222,11111222,11111222' 
TABS,ioos:station:wmo:42047:1,2004-08-21T12:09:00Z,27.8966,-93.5973,4.0,4.467057197,174.9915917,6.47,'11111222,11111222,11111222' 
TABS,ioos:station:wmo:42047:1,2004-08-21T12:39:00Z,27.8966,-93.5973,4.0,3.955767941,171.2760927,6.33,'11111222,11111222,11111222' 
TABS,ioos:station:wmo:42047:1,2004-08-21T13:09:00Z,27.8966,-93.5973,4.0,3.415289153,176.811082,5.13,'11111222,11111222,11111222' 
TABS,ioos:station:wmo:42047:1,2004-08-21T13:39:00Z,27.8966,-93.5973,4.0,3.550507006,179.0319255,5.57,'11111222,11111222,11111222' 
TABS,ioos:station:wmo:42047:1,2004-08-21T14:09:00Z,27.8966,-93.5973,4.0,3.212537938,201.9340442,4.74,'11111222,11111222,11111222' 
TABS,ioos:station:wmo:42047:1,2004-08-21T14:39:00Z,27.8966,-93.5973,4.0,3.50069993,178.8544503,5.31,'11111222,11111222,11111222' 
TABS,ioos:station:wmo:42047:1,2004-08-21T15:09:00Z,27.8966,-93.5973,4.0,3.342528983,182.2291554,4.97,'11111222,11111222,11111222' 
TABS,ioos:station:wmo:42047:1,2004-08-21T15:39:00Z,27.8966,-93.5973,4.0,2.946133059,176.3025727,4.69,'11111222,11111222,11111222' 
TABS,ioos:station:wmo:42047:1,2004-08-21T16:09:00Z,27.8966,-93.5973,4.0,2.406927502,169.9508854,3.72,'11111222,11111222,11111222' 
TABS,ioos:station:wmo:42047:1,2004-08-21T16:39:00Z,27.8966,-93.5973,4.0,2.345570293,159.0153617,3.96,'11111222,11111222,11111222' 
TABS,ioos:station:wmo:42047:1,2004-08-21T17:09:00Z,27.8966,-93.5973,4.0,4.462689772,148.3759602,5.87,'11111222,11111222,11111222' 
TABS,ioos:station:wmo:42047:1,2004-08-21T17:39:00Z,27.8966,-93.5973,4.0,3.047704054,135.3991188,4.18,'11111222,11111222,11111222' 
TABS,ioos:station:wmo:42047:1,2004-08-21T18:09:00Z,27.8966,-93.5973,4.0,3.528809998,134.1966219,5.09,'11111222,11111222,11111222' 
TABS,ioos:station:wmo:42047:1,2004-08-21T18:39:00Z,27.8966,-93.5973,4.0,5.400981392,155.3807215,7.13,'11111222,11111222,11111222' 
TABS,ioos:station:wmo:42047:1,2004-08-21T19:09:00Z,27.8966,-93.5973,4.0,5.167678396,168.8425126,7.1,'11111222,11111222,11111222' 
TABS,ioos:station:wmo:42047:1,2004-08-21T19:39:00Z,27.8966,-93.5973,4.0,5.022997113,166.2959844,6.93,'11111222,11111222,11111222' 
TABS,ioos:station:wmo:42047:1,2004-08-21T20:09:00Z,27.8966,-93.5973,4.0,3.870813868,198.9968202,6.66,'11111222,11111222,11111222' 
TABS,ioos:station:wmo:42047:1,2004-08-21T20:39:00Z,27.8966,-93.5973,4.0,3.936356183,193.9658165,5.87,'11111222,11111222,11111222' 
TABS,ioos:station:wmo:42047:1,2004-08-21T21:09:00Z,27.8966,-93.5973,4.0,2.970824801,178.650058,4.97,'11111222,11111222,11111222' 
TABS,ioos:station:wmo:42047:1,2004-08-21T21:39:00Z,27.8966,-93.5973,4.0,3.0801461,180.5582673,4.81,'11111222,11111222,11111222' 
TABS,ioos:station:wmo:42047:1,2004-08-21T22:09:00Z,27.8966,-93.5973,4.0,3.051098163,184.8886,5.04,'11111222,11111222,11111222' 
TABS,ioos:station:wmo:42047:1,2004-08-21T22:39:00Z,27.8966,-93.5973,4.0,3.12230684,177.7976174,4.97,'11111222,11111222,11111222' 
TABS,ioos:station:wmo:42047:1,2004-08-21T23:09:00Z,27.8966,-93.5973,4.0,3.26300475,177.5411722,5.55,'11111222,11111222,11111222' 
TABS,ioos:station:wmo:42047:1,2004-08-21T23:39:00Z,27.8966,-93.5973,4.0,2.983906835,167.2215072,4.42,'11111222,11111222,11111222' 
TABS,ioos:station:wmo:42047:1,2004-08-22T00:09:00Z,27.8966,-93.5973,4.0,2.153903433,171.4563115,3.97,'11111222,11111222,11111222' 
TABS,ioos:station:wmo:42047:1,2004-08-22T00:39:00Z,27.8966,-93.5973,4.0,2.505693517,166.8513735,4.11,'11111222,11111222,11111222' 
TABS,ioos:station:wmo:42047:1,2004-08-22T01:09:00Z,27.8966,-93.5973,4.0,2.8609439,148.1435011,4.14,'11111222,11111222,11111222' 
TABS,ioos:station:wmo:42047:1,2004-08-22T01:39:00Z,27.8966,-93.5973,4.0,2.694290259,139.2144844,3.98,'11111222,11111222,11111222' 
TABS,ioos:station:wmo:42047:1,2004-08-22T02:09:00Z,27.8966,-93.5973,4.0,2.346912866,122.4715373,3.37,'11111222,11111222,11111222' 
TABS,ioos:station:wmo:42047:1,2004-08-22T02:39:00Z,27.8966,-93.5973,4.0,2.848806768,116.9251895,4.18,'11111222,11111222,11111222' 
TABS,ioos:station:wmo:42047:1,2004-08-22T03:09:00Z,27.8966,-93.5973,4.0,2.626880279,122.7224655,3.73,'11111222,11111222,11111222' 
TABS,ioos:station:wmo:42047:1,2004-08-22T03:39:00Z,27.8966,-93.5973,4.0,2.759655776,123.9207427,4.09,'11111222,11111222,11111222' 
TABS,ioos:station:wmo:42047:1,2004-08-22T04:09:00Z,27.8966,-93.5973,4.0,1.973271395,108.6189659,3.34,'11111222,11111222,11111222' 
TABS,ioos:station:wmo:42047:1,2004-08-22T04:39:00Z,27.8966,-93.5973,4.0,2.240089284,113.1317876,3.67,'11111222,11111222,11111222' 
TABS,ioos:station:wmo:42047:1,2004-08-22T05:09:00Z,27.8966,-93.5973,4.0,2.025487596,138.2023288,3.31,'11111222,11111222,11111222' 
TABS,ioos:station:wmo:42047:1,2004-08-22T05:39:00Z,27.8966,-93.5973,4.0,3.004862726,141.7573974,4.61,'11111222,11111222,11111222' 
TABS,ioos:station:wmo:42047:1,2004-08-22T06:09:00Z,27.8966,-93.5973,4.0,3.927301873,146.1079074,5.41,'11111222,11111222,11111222' 
TABS,ioos:station:wmo:42047:1,2004-08-22T06:39:00Z,27.8966,-93.5973,4.0,4.176338109,157.9186176,6.37,'11111222,11111222,11111222' 
TABS,ioos:station:wmo:42047:1,2004-08-22T07:09:00Z,27.8966,-93.5973,4.0,4.380559325,155.3073441,6.68,'11111222,11111222,11111222' 
TABS,ioos:station:wmo:42047:1,2004-08-22T07:39:00Z,27.8966,-93.5973,4.0,4.368065934,159.0757576,5.95,'11111222,11111222,11111222' 
TABS,ioos:station:wmo:42047:1,2004-08-22T08:09:00Z,27.8966,-93.5973,4.0,4.874094788,156.8016742,6.47,'11111222,11111222,11111222' 
TABS,ioos:station:wmo:42047:1,2004-08-22T08:39:00Z,27.8966,-93.5973,4.0,5.026221245,160.2314118,6.9,'11111222,11111222,11111222' 
TABS,ioos:station:wmo:42047:1,2004-08-22T09:09:00Z,27.8966,-93.5973,4.0,5.136010125,160.7891797,6.84,'11111222,11111222,11111222' 
TABS,ioos:station:wmo:42047:1,2004-08-22T09:39:00Z,27.8966,-93.5973,4.0,5.134082196,156.8309814,7.01,'11111222,11111222,11111222' 
TABS,ioos:station:wmo:42047:1,2004-08-22T10:09:00Z,27.8966,-93.5973,4.0,4.870821286,163.9094317,6.68,'11111222,11111222,11111222' 
TABS,ioos:station:wmo:42047:1,2004-08-22T10:39:00Z,27.8966,-93.5973,4.0,4.949595943,162.4804928,6.71,'11111222,11111222,11111222' 
TABS,ioos:station:wmo:42047:1,2004-08-22T11:09:00Z,27.8966,-93.5973,4.0,5.324030428,166.6426409,7.22,'11111222,11111222,11111222' 
TABS,ioos:station:wmo:42047:1,2004-08-22T11:39:00Z,27.8966,-93.5973,4.0,5.025733777,165.2450767,7.33,'11111222,11111222,11111222' 
TABS,ioos:station:wmo:42047:1,2004-08-22T12:09:00Z,27.8966,-93.5973,4.0,4.502899066,170.4123999,6.69,'11111222,11111222,11111222' 
TABS,ioos:station:wmo:42047:1,2004-08-22T12:39:00Z,27.8966,-93.5973,4.0,5.219674319,170.6281397,7.5,'11111222,11111222,11111222' 
TABS,ioos:station:wmo:42047:1,2004-08-22T13:09:00Z,27.8966,-93.5973,4.0,5.30935966,169.4733879,8.22,'11111222,11111222,11111222' 
TABS,ioos:station:wmo:42047:1,2004-08-22T13:39:00Z,27.8966,-93.5973,4.0,5.496071324,175.6175064,7.47,'11111222,11111222,11111222' 
TABS,ioos:station:wmo:42047:1,2004-08-22T14:09:00Z,27.8966,-93.5973,4.0,4.956309111,174.0940832,6.83,'11111222,11111222,11111222' 
TABS,ioos:station:wmo:42047:1,2004-08-22T14:39:00Z,27.8966,-93.5973,4.0,4.732071428,178.3048512,6.57,'11111222,11111222,11111222' 
TABS,ioos:station:wmo:42047:1,2004-08-22T15:09:00Z,27.8966,-93.5973,4.0,4.683460259,177.7976174,6.81,'11111222,11111222,11111222' 
TABS,ioos:station:wmo:42047:1,2004-08-22T15:39:00Z,27.8966,-93.5973,4.0,5.010638682,180.9150332,7.09,'11111222,11111222,11111222' 
TABS,ioos:station:wmo:42047:1,2004-08-22T16:09:00Z,27.8966,-93.5973,4.0,5.110088062,179.6638407,7.28,'11111222,11111222,11111222' 
TABS,ioos:station:wmo:42047:1,2004-08-22T16:39:00Z,27.8966,-93.5973,4.0,4.188078318,176.440952,6.42,'11111222,11111222,11111222' 
TABS,ioos:station:wmo:42047:1,2004-08-22T17:09:00Z,27.8966,-93.5973,4.0,3.750653276,181.069605,5.63,'11111222,11111222,11111222' 
TABS,ioos:station:wmo:42047:1,2004-08-22T17:39:00Z,27.8966,-93.5973,4.0,2.959746611,175.3491133,4.75,'11111222,11111222,11111222' 
TABS,ioos:station:wmo:42047:1,2004-08-22T18:09:00Z,27.8966,-93.5973,4.0,3.401543767,175.2785445,4.94,'11111222,11111222,11111222' 
TABS,ioos:station:wmo:42047:1,2004-08-22T18:39:00Z,27.8966,-93.5973,4.0,3.475197836,176.8661145,5.47,'11111222,11111222,11111222' 
TABS,ioos:station:wmo:42047:1,2004-08-22T19:09:00Z,27.8966,-93.5973,4.0,3.022002647,182.0862158,4.73,'11111222,11111222,11111222' 
TABS,ioos:station:wmo:42047:1,2004-08-22T19:39:00Z,27.8966,-93.5973,4.0,2.817126195,187.9577171,5.08,'11111222,11111222,11111222' 
TABS,ioos:station:wmo:42047:1,2004-08-22T20:09:00Z,27.8966,-93.5973,4.0,2.334887578,171.6272034,3.78,'11111222,11111222,11111222' 
TABS,ioos:station:wmo:42047:1,2004-08-22T20:39:00Z,27.8966,-93.5973,4.0,2.080961316,166.0975559,3.7,'11111222,11111222,11111222' 
TABS,ioos:station:wmo:42047:1,2004-08-22T21:09:00Z,27.8966,-93.5973,4.0,2.068646901,158.1474196,4.4,'11111222,11111222,11111222' 
TABS,ioos:station:wmo:42047:1,2004-08-22T21:39:00Z,27.8966,-93.5973,4.0,1.788686669,168.0620879,3.26,'11111222,11111222,11111222' 
TABS,ioos:station:wmo:42047:1,2004-08-22T22:09:00Z,27.8966,-93.5973,4.0,1.485530208,136.6368889,3.08,'11111222,11111222,11111222' 
TABS,ioos:station:wmo:42047:1,2004-08-22T22:39:00Z,27.8966,-93.5973,4.0,1.691892432,145.8405958,3.48,'11111222,11111222,11111222' 
TABS,ioos:station:wmo:42047:1,2004-08-22T23:09:00Z,27.8966,-93.5973,4.0,1.986001007,130.5077447,3.51,'11111222,11111222,11111222' 
TABS,ioos:station:wmo:42047:1,2004-08-22T23:39:00Z,27.8966,-93.5973,4.0,2.008905174,129.9519678,3.27,'11111222,11111222,11111222' 
TABS,ioos:station:wmo:42047:1,2004-08-23T00:09:00Z,27.8966,-93.5973,4.0,3.249138347,125.3535222,5.09,'11111222,11111222,11111222' 
TABS,ioos:station:wmo:42047:1,2004-08-23T00:39:00Z,27.8966,-93.5973,4.0,3.672288115,142.4126807,5.28,'11111222,11111222,11111222' 
TABS,ioos:station:wmo:42047:1,2004-08-23T01:09:00Z,27.8966,-93.5973,4.0,3.334441482,137.7959715,4.72,'11111222,11111222,11111222' 
TABS,ioos:station:wmo:42047:1,2004-08-23T01:39:00Z,27.8966,-93.5973,4.0,3.507363682,134.538264,5.75,'11111222,11111222,11111222' 
TABS,ioos:station:wmo:42047:1,2004-08-23T02:09:00Z,27.8966,-93.5973,4.0,4.12825629,131.9565869,6.17,'11111222,11111222,11111222' 
TABS,ioos:station:wmo:42047:1,2004-08-23T02:39:00Z,27.8966,-93.5973,4.0,4.529944812,129.8058989,6.55,'11111222,11111222,11111222' 
TABS,ioos:station:wmo:42047:1,2004-08-23T03:09:00Z,27.8966,-93.5973,4.0,4.684122116,132.9240415,7.41,'11111222,11111222,11111222' 
TABS,ioos:station:wmo:42047:1,2004-08-23T03:39:00Z,27.8966,-93.5973,4.0,4.745324014,135.9395044,6.74,'11111222,11111222,11111222' 
TABS,ioos:station:wmo:42047:1,2004-08-23T04:09:00Z,27.8966,-93.5973,4.0,5.208646657,130.1720903,7.33,'11111222,11111222,11111222' 
TABS,ioos:station:wmo:42047:1,2004-08-23T04:39:00Z,27.8966,-93.5973,4.0,5.18058877,129.2819543,7.5,'11111222,11111222,11111222' 
TABS,ioos:station:wmo:42047:1,2004-08-23T05:09:00Z,27.8966,-93.5973,4.0,5.259781364,140.0134177,8.21,'11111222,11111222,11111222' 
TABS,ioos:station:wmo:42047:1,2004-08-23T05:39:00Z,27.8966,-93.5973,4.0,5.14323828,136.8123658,8.03,'11111222,11111222,11111222' 
TABS,ioos:station:wmo:42047:1,2004-08-23T06:09:00Z,27.8966,-93.5973,4.0,5.999208281,145.9393813,8.41,'11111222,11111222,11111222' 
TABS,ioos:station:wmo:42047:1,2004-08-23T06:39:00Z,27.8966,-93.5973,4.0,5.276153902,151.3464841,8.12,'11111222,11111222,11111222' 
TABS,ioos:station:wmo:42047:1,2004-08-23T07:09:00Z,27.8966,-93.5973,4.0,5.562032003,147.4816901,7.93,'11111222,11111222,11111222' 
TABS,ioos:station:wmo:42047:1,2004-08-23T07:39:00Z,27.8966,-93.5973,4.0,6.261389622,161.8546742,9.73,'11111222,11111222,11111222' 
TABS,ioos:station:wmo:42047:1,2004-08-23T08:09:00Z,27.8966,-93.5973,4.0,6.396475592,150.1887371,8.74,'11111222,11111222,11111222' 
TABS,ioos:station:wmo:42047:1,2004-08-23T08:39:00Z,27.8966,-93.5973,4.0,6.263960409,168.5826734,9.04,'11111222,11111222,11111222' 
TABS,ioos:station:wmo:42047:1,2004-08-23T09:09:00Z,27.8966,-93.5973,4.0,6.165484571,174.7889668,8.66,'11111222,11111222,11111222' 
TABS,ioos:station:wmo:42047:1,2004-08-23T09:39:00Z,27.8966,-93.5973,4.0,5.796723212,170.6679059,8.52,'11111222,11111222,11111222' 
TABS,ioos:station:wmo:42047:1,2004-08-23T10:09:00Z,27.8966,-93.5973,4.0,6.277786234,174.6074825,8.56,'11111222,11111222,11111222' 